Home   Weather   Santa Fe   Past weeks
Flag for USA

Past Weather in Santa Fe, New Mexico, USA — Yesterday and Last 2 Weeks

Now
57 °F

Clear.


Feels Like: 57 °F
Forecast: 64 / 42 °F
Wind: 5 mph from North

Location: Santa Fe County Municipal Airport

Current Time: Apr 8, 2020 at 9:35:01 pm

Latest Report: Apr 8, 2020 at 8:53 pm


Visibility: 10 mi

Pressure: 29.91 "Hg (23.20 "Hg at 2132m altitude)

Humidity: 17%

Dew Point: 12 °F

Location of Santa FeLocation

Past Weather in Santa Fe — Graph

°F

Santa Fe Temperature Yesterday

Maximum temperature yesterday: 70 °F (at 2:53 pm)
Minimum temperature yesterday: 36 °F (at 6:53 am)
Average temperature yesterday: 55 °F

High & Low Weather Summary for the Past Weeks

 TemperatureHumidityPressure
High71 °F (Apr 8, 3:53 pm)70% (Apr 4, 6:53 am)30.14 "Hg (Apr 4, 6:53 am)
Low27 °F (Mar 28, 7:53 am)8% (Apr 6, 4:53 pm)29.47 "Hg (Mar 27, 2:53 pm)
Average50 °F32%29.83 "Hg
* Reported Mar 24 7:53 pm — Apr 8 7:53 pm, Santa Fe. Weather by CustomWeather, © 2020

Note: Actual official high and low records may vary slightly from our data, if they occured in-between our weather recording intervals... More about our weather records

Santa Fe Weather History for the Previous 24 Hours

Scroll right to see more
 ConditionsComfort  
Time TempWeatherWind HumidityBarometerVisibility
7:53 pm
Wed, Apr 8
60 °FClear.6 mph15%29.90 "Hg10 mi
6:53 pm67 °FSunny.9 mph12%29.88 "Hg10 mi
5:53 pm70 °FSunny.13 mph10%29.88 "Hg10 mi
4:53 pm70 °FSunny.6 mph8%29.87 "Hg10 mi
3:53 pm71 °FSunny.9 mph9%29.88 "Hg10 mi
2:53 pm70 °FSunny.13 mph11%29.90 "Hg10 mi
1:53 pm69 °FSunny.9 mph12%29.93 "Hg10 mi
12:53 pm70 °FSunny.15 mph12%29.96 "Hg10 mi
11:53 am67 °FSunny.5 mph14%29.97 "Hg10 mi
10:53 am65 °FSunny.13 mph16%29.98 "Hg10 mi
9:53 am58 °FSunny.10 mph20%30.01 "Hg10 mi
8:53 am50 °FSunny.12 mph26%30.01 "Hg10 mi
7:53 am44 °FSunny.15 mph32%30.01 "Hg10 mi
6:53 am38 °FSunny.9 mph39%29.98 "Hg10 mi
5:53 am36 °FClear.7 mph42%29.96 "Hg10 mi
4:53 am40 °FClear.8 mph35%29.93 "Hg10 mi
3:53 am41 °FClear.6 mph35%29.90 "Hg10 mi
2:53 am41 °FClear.9 mph36%29.90 "Hg10 mi
1:53 am40 °FClear.7 mph38%29.91 "Hg10 mi
12:53 am38 °FClear.7 mph43%29.94 "Hg10 mi
11:53 pm
Tue, Apr 7
45 °FClear.7 mph31%29.93 "Hg10 mi
10:53 pm44 °FClear.10 mph32%29.94 "Hg10 mi
9:53 pm46 °FClear.9 mph30%29.92 "Hg10 mi
Weather by CustomWeather, © 2020

See weather overview

Advertising